CW9476 Bloomfield NJ US current weather conditions

sailwx.info

Wind from 316 at 1 knots gusting 7

Air temperature 3.9° C
Dewpoint -2.3° C

Last reported at 2020-Jan-28 23:10 UTC.
Time now 2020-Jan-28 23:58 UTC

Location: N 40°50' W 074°10'.
View on Google Maps.

See reports from other nearby stations

  
Tides and Currents Weather Stations Pressure Air Temp Water Temp Dewpoint Dewpoint Depression Visibility Wind Speed Wind Dir Waves Ship Positions
date/time (UTC)wind fromknots sea level pressurealtimeterstation pressurevisibilityair tempwater tempwave heightnotes
2020-Jan-28 23:10 316 1 gusting 7 3.9
2020-Jan-28 23:00 355 3 gusting 6 3.9
2020-Jan-28 22:50 310 0 gusting 7 3.9
2020-Jan-28 22:40 298 6 gusting 8 3.9
2020-Jan-28 22:30 273 5 gusting 6 3.9
2020-Jan-28 22:20 015 3 gusting 6 3.9
2020-Jan-28 22:10 313 1 gusting 5 3.9
2020-Jan-28 22:00 005 0 gusting 7 4.4
2020-Jan-28 21:50 360 2 gusting 3 4.4
2020-Jan-28 21:40 311 0 gusting 6 4.4
2020-Jan-28 21:30 018 6 gusting 6 4.4
2020-Jan-28 21:20 292 3 gusting 7 4.4
2020-Jan-28 21:10 325 1 gusting 7 4.4
2020-Jan-28 21:00 321 0 gusting 5 4.4
2020-Jan-28 20:50 360 0 gusting 7 5.0
2020-Jan-28 20:40 303 2 gusting 6 5.0
2020-Jan-28 20:30 325 1 gusting 6 5.0
2020-Jan-28 20:20 294 2 gusting 4 5.0
2020-Jan-28 20:10 360 2 gusting 6 5.0
2020-Jan-28 20:00 276 1 gusting 7 5.0
2020-Jan-28 19:50 315 2 gusting 6 5.0
2020-Jan-28 19:40 355 4 gusting 6 5.0
2020-Jan-28 19:30 290 0 gusting 8 5.0
2020-Jan-28 19:20 009 2 gusting 8 5.0
2020-Jan-28 19:10 290 0 gusting 7 5.0
2020-Jan-28 19:00 268 2 gusting 9 5.6
2020-Jan-28 18:50 290 4 gusting 9 5.6
2020-Jan-28 18:40 336 2 gusting 8 6.1
2020-Jan-28 18:30 112 2 gusting 9 6.7
2020-Jan-28 18:20 231 4 gusting 10 6.1
2020-Jan-28 18:10 056 1 gusting 13 6.7
2020-Jan-28 18:00 298 2 gusting 10 6.1
2020-Jan-28 17:50 026 3 gusting 9 6.1
2020-Jan-28 17:39 360 2 gusting 7 6.7
2020-Jan-28 17:29 313 0 gusting 9 6.7
2020-Jan-28 17:19 009 6 gusting 9 6.1
2020-Jan-28 17:09 355 3 gusting 9 6.1
2020-Jan-28 16:59 310 3 gusting 11 6.1
2020-Jan-28 16:49 340 5 gusting 6 6.1
2020-Jan-28 16:39 302 2 gusting 8 6.1
2020-Jan-28 16:29 309 3 gusting 9 5.6
2020-Jan-28 16:19 292 4 gusting 6 5.6
2020-Jan-28 16:09 342 2 gusting 8 5.6
2020-Jan-28 15:59 302 2 gusting 9 5.6
2020-Jan-28 15:49 340 2 gusting 7 5.6
2020-Jan-28 15:39 005 3 gusting 8 5.0
2020-Jan-28 15:29 296 3 gusting 8 5.0
2020-Jan-28 15:19 264 3 gusting 8 5.0
2020-Jan-28 15:09 335 2 gusting 7 4.4
2020-Jan-28 14:59 319 2 gusting 7 4.4
2020-Jan-28 14:49 295 4.4
2020-Jan-28 14:39 296 3.9
2020-Jan-28 14:29 355 2 gusting 6 3.9
2020-Jan-28 14:19 287 2 gusting 6 3.9
2020-Jan-28 14:09 289 0 gusting 8 3.9
2020-Jan-28 13:59 264 0 gusting 4 3.3
2020-Jan-28 13:49 318 1 gusting 6 3.3
2020-Jan-28 13:39 277 3 gusting 6 3.3
2020-Jan-28 13:29 267 0 gusting 3 3.3
2020-Jan-28 13:19 285 1 gusting 4 3.3
2020-Jan-28 13:09 360 3 gusting 4 2.8
2020-Jan-28 12:59 252 1 gusting 5 2.8
2020-Jan-28 12:49 053 1 gusting 10 2.8
2020-Jan-28 12:39 015 2 gusting 7 2.8
2020-Jan-28 12:29 298 1 gusting 6 2.8
2020-Jan-28 12:19 294 2 gusting 9 2.8
2020-Jan-28 12:09 302 4 gusting 6 2.8
2020-Jan-28 11:59 289 4 gusting 7 2.8
2020-Jan-28 11:49 262 5 gusting 6 2.8
2020-Jan-28 11:39 263 3 gusting 6 2.8
2020-Jan-28 11:29 314 0 gusting 6 2.8
2020-Jan-28 11:19 323 2 gusting 6 2.8
2020-Jan-28 11:09 299 1 gusting 5 2.8
2020-Jan-28 10:59 286 0 gusting 4 2.8
2020-Jan-28 10:49 360 0 gusting 5 2.8
2020-Jan-28 10:39 173 0 gusting 5 2.8
2020-Jan-28 10:29 309 1 gusting 5 2.8
2020-Jan-28 10:19 310 2 gusting 6 2.8
2020-Jan-28 10:09 284 2.8
2020-Jan-28 09:59 248 1 gusting 5 2.8
2020-Jan-28 09:49 290 0 gusting 5 2.8
2020-Jan-28 09:39 252 0 gusting 8 2.8
2020-Jan-28 09:29 304 2 gusting 6 2.8
2020-Jan-28 09:19 287 4 gusting 10 2.8
2020-Jan-28 09:09 296 1 gusting 6 2.8
2020-Jan-28 08:59 319 2 gusting 6 2.8
2020-Jan-28 08:49 252 0 gusting 6 2.8
2020-Jan-28 08:39 302 3 gusting 5 2.8
2020-Jan-28 08:29 317 0 gusting 6 2.8
2020-Jan-28 08:19 278 2.8
2020-Jan-28 08:09 302 0 gusting 5 3.3
2020-Jan-28 07:59 325 0 gusting 5 2.8
2020-Jan-28 07:49 302 0 gusting 3 3.3
2020-Jan-28 07:39 277 0 gusting 3 3.3
2020-Jan-28 07:29 288 1 gusting 2 3.3
2020-Jan-28 07:19 304 3.3
2020-Jan-28 07:09 316 1 gusting 4 3.3
2020-Jan-28 06:59 290 0 gusting 6 3.3
2020-Jan-28 06:49 303 3.3
2020-Jan-28 06:39 336 1 gusting 4 3.3
2020-Jan-28 06:29 282 1 gusting 5 3.3
2020-Jan-28 06:19 273 0 gusting 4 3.3
2020-Jan-28 06:09 286 1 gusting 3 3.3
2020-Jan-28 06:00 284 0 gusting 4 3.3
2020-Jan-28 05:49 294 0 gusting 6 3.9
2020-Jan-28 05:39 294 2 gusting 4 3.9
2020-Jan-28 05:30 237 3.9
2020-Jan-28 05:19 322 0 gusting 2 3.9
2020-Jan-28 05:09 267 1 gusting 6 3.9
2020-Jan-28 05:00 294 0 gusting 5 3.9
2020-Jan-28 04:50 296 0 gusting 3 3.9
2020-Jan-28 04:40 288 3 gusting 3 3.9
2020-Jan-28 04:30 045 0 gusting 3 3.9
2020-Jan-28 04:20 334 1 gusting 3 3.9
2020-Jan-28 04:10 303 0 gusting 3 3.9
2020-Jan-28 04:00 289 0 gusting 6 3.9
2020-Jan-28 03:50 295 2 gusting 4 4.4
2020-Jan-28 03:40 297 2 gusting 6 4.4
2020-Jan-28 03:30 238 0 gusting 6 4.4
2020-Jan-28 03:20 348 1 gusting 5 4.4
2020-Jan-28 03:10 355 4.4
2020-Jan-28 03:00 360 1 gusting 4 4.4
2020-Jan-28 02:50 035 0 gusting 5 4.4
2020-Jan-28 02:40 340 1 gusting 4 4.4
2020-Jan-28 02:30 023 5.0
2020-Jan-28 02:20 302 5.0
2020-Jan-28 02:10 302 5.0
2020-Jan-28 02:00 026 0 gusting 2 5.0
2020-Jan-28 01:50 351 5.0
2020-Jan-28 01:40 322 5.0
2020-Jan-28 01:30 319 5.0
2020-Jan-28 01:20 291 3 gusting 3 5.0
2020-Jan-28 01:10 270 0 gusting 3 5.6
2020-Jan-28 01:00 304 1 gusting 3 5.6
2020-Jan-28 00:50 290 5.6
2020-Jan-28 00:40 295 1 gusting 3 5.6
2020-Jan-28 00:29 245 5.6
2020-Jan-28 00:19 320 1 gusting 3 5.6
2020-Jan-28 00:09 318 0 gusting 5 5.6
2020-Jan-27 23:59 306 1 gusting 2 5.6
2020-Jan-27 23:49 303 0 gusting 3 5.6
2020-Jan-27 23:39 251 5.6
2020-Jan-27 23:29 312 0 gusting 2 5.6
2020-Jan-27 23:19 340 0 gusting 3 5.6
2020-Jan-27 23:09 281 5.6
2020-Jan-27 22:59 311 0 gusting 3 5.6
2020-Jan-27 22:49 286 5.6
2020-Jan-27 22:39 316 5.6
2020-Jan-27 22:29 355 0 gusting 5 6.1
2020-Jan-27 22:19 338 6.1
2020-Jan-27 22:09 038 6.1
2020-Jan-27 21:59 290 3 gusting 6 6.1
2020-Jan-27 21:49 310 1 gusting 6 6.1
2020-Jan-27 21:39 005 4 gusting 6 6.1
2020-Jan-27 21:29 323 3 gusting 8 6.1
2020-Jan-27 21:19 317 1 gusting 6 6.7
2020-Jan-27 21:09 286 2 gusting 9 6.7
2020-Jan-27 20:59 240 2 gusting 6 6.7
2020-Jan-27 20:49 234 0 gusting 6 6.7
2020-Jan-27 20:39 267 1 gusting 7 6.7
2020-Jan-27 20:29 325 0 gusting 6 6.7
2020-Jan-27 20:19 299 3 gusting 9 7.2
2020-Jan-27 20:09 282 2 gusting 3 7.2
2020-Jan-27 19:59 350 7.2
2020-Jan-27 19:49 300 4 gusting 6 6.7
2020-Jan-27 19:39 282 6.7
2020-Jan-27 19:29 304 1 gusting 6 7.2
2020-Jan-27 19:19 277 1 gusting 6 6.7
2020-Jan-27 19:09 331 1 gusting 3 6.7
2020-Jan-27 18:59 317 0 gusting 6 6.7
2020-Jan-27 18:49 279 2 gusting 5 6.7
2020-Jan-27 18:39 285 6.7
2020-Jan-27 18:29 321 0 gusting 5 6.1
2020-Jan-27 18:19 243 0 gusting 5 6.1
2020-Jan-27 18:09 232 3 gusting 6 6.1
2020-Jan-27 17:59 205 2 gusting 6 6.1
2020-Jan-27 17:49 221 0 gusting 6 6.1
2020-Jan-27 17:39 221 2 gusting 7 6.1
2020-Jan-27 17:29 199 3 gusting 9 6.1
2020-Jan-27 17:19 258 3 gusting 10 5.6
2020-Jan-27 17:09 252 3 gusting 8 5.6
2020-Jan-27 16:59 248 4 gusting 9 5.6
2020-Jan-27 16:49 267 2 gusting 11 5.6
2020-Jan-27 16:39 231 1 gusting 8 5.6
2020-Jan-27 16:29 230 2 gusting 10 5.6
2020-Jan-27 16:19 248 2 gusting 8 5.6
2020-Jan-27 16:09 242 3 gusting 9 5.6
2020-Jan-27 15:59 273 3 gusting 9 5.6
2020-Jan-27 15:49 262 6 gusting 9 5.0
2020-Jan-27 15:39 248 6 gusting 7 5.0
2020-Jan-27 15:29 237 2 gusting 11 5.6
2020-Jan-27 15:19 280 2 gusting 10 4.4
2020-Jan-27 15:09 223 3 gusting 6 4.4
2020-Jan-27 14:59 229 3 gusting 6 3.9
2020-Jan-27 14:49 281 0 gusting 7 3.9
2020-Jan-27 14:39 259 3 gusting 9 3.9
2020-Jan-27 14:29 246 6 gusting 7 3.9
2020-Jan-27 14:19 232 1 gusting 10 3.3
2020-Jan-27 14:09 260 3 gusting 13 3.3
2020-Jan-27 13:59 250 3 gusting 7 3.3
2020-Jan-27 13:49 256 3 gusting 7 3.3
2020-Jan-27 13:39 247 2 gusting 10 2.8
2020-Jan-27 13:29 256 3 gusting 7 2.8
2020-Jan-27 13:19 236 2 gusting 6 2.8
2020-Jan-27 13:09 207 0 gusting 4 2.8
2020-Jan-27 12:59 200 3 gusting 6 2.2
2020-Jan-27 12:49 251 2 gusting 6 2.8
2020-Jan-27 12:39 215 3 gusting 9 2.8
2020-Jan-27 12:29 243 3 gusting 10 2.8
2020-Jan-27 12:20 273 2 gusting 8 2.8
2020-Jan-27 12:10 252 6 gusting 7 2.2
2020-Jan-27 12:00 269 1 gusting 8 2.8
2020-Jan-27 11:50 269 3 gusting 9 2.2
2020-Jan-27 11:40 271 6 gusting 10 2.8
2020-Jan-27 11:30 265 1 gusting 9 2.2
2020-Jan-27 11:20 263 2 gusting 8 2.8
2020-Jan-27 11:10 259 2 gusting 9 2.2
2020-Jan-27 11:00 254 2 gusting 8 2.2
2020-Jan-27 10:50 250 2 gusting 8 2.8
2020-Jan-27 10:40 257 4 gusting 9 2.8
2020-Jan-27 10:30 263 5 gusting 7 2.2
2020-Jan-27 10:20 258 2 gusting 7 2.2
2020-Jan-27 10:10 238 2 gusting 8 2.2
2020-Jan-27 10:00 239 1 gusting 7 2.2
2020-Jan-27 09:50 232 5 gusting 7 2.2
2020-Jan-27 09:40 258 3 gusting 6 2.2
2020-Jan-27 09:30 190 1 gusting 5 2.2
2020-Jan-27 09:20 236 5 gusting 6 2.2
2020-Jan-27 09:10 248 3 gusting 5 2.8
2020-Jan-27 09:00 251 1 gusting 6 2.8
2020-Jan-27 08:50 244 0 gusting 7 2.8
2020-Jan-27 08:40 265 0 gusting 7 2.8
2020-Jan-27 08:30 269 3 gusting 7 2.8
2020-Jan-27 08:20 261 2 gusting 8 2.8
2020-Jan-27 08:10 260 1 gusting 6 2.8
2020-Jan-27 08:00 235 2 gusting 6 2.8
2020-Jan-27 07:50 292 2 gusting 8 2.8
2020-Jan-27 07:40 261 5 gusting 8 2.8
2020-Jan-27 07:29 255 3 gusting 9 2.8
2020-Jan-27 07:19 220 6 gusting 8 2.8
2020-Jan-27 07:09 243 5 gusting 8 2.8
2020-Jan-27 06:59 311 6 gusting 8 2.8
2020-Jan-27 06:49 257 2 gusting 7 2.8
2020-Jan-27 06:39 232 1 gusting 8 2.8
2020-Jan-27 06:29 254 2 gusting 6 2.8
2020-Jan-27 06:19 251 2 gusting 5 2.8
2020-Jan-27 06:09 246 2 gusting 6 2.8
2020-Jan-27 05:59 184 3 gusting 6 2.8
2020-Jan-27 05:49 233 2.8
2020-Jan-27 05:39 257 0 gusting 6 2.8
2020-Jan-27 05:29 276 1 gusting 6 2.8
2020-Jan-27 05:19 263 1 gusting 3 2.8
2020-Jan-27 05:09 254 0 gusting 6 2.8
2020-Jan-27 04:59 204 1 gusting 3 2.8
2020-Jan-27 04:49 266 1 gusting 2 2.8
2020-Jan-27 04:39 232 0 gusting 4 2.8
2020-Jan-27 04:29 228 2.8
2020-Jan-27 04:19 288 0 gusting 6 2.8
2020-Jan-27 04:09 271 1 gusting 6 2.8
2020-Jan-27 03:59 250 1 gusting 6 2.8
2020-Jan-27 03:49 250 0 gusting 5 2.8
2020-Jan-27 03:39 267 0 gusting 9 2.8
2020-Jan-27 03:29 326 0 gusting 4 2.8
2020-Jan-27 03:19 261 1 gusting 6 2.8
2020-Jan-27 03:09 247 0 gusting 3 2.8
2020-Jan-27 02:59 244 1 gusting 6 3.3
2020-Jan-27 02:49 247 1 gusting 5 3.3
2020-Jan-27 02:39 204 4 gusting 6 3.3
2020-Jan-27 02:29 227 0 gusting 6 3.3
2020-Jan-27 02:19 259 0 gusting 6 3.3
2020-Jan-27 02:09 217 0 gusting 6 3.3
2020-Jan-27 01:59 248 3.3
2020-Jan-27 01:49 246 3 gusting 6 3.3
2020-Jan-27 01:39 256 2 gusting 6 3.3
2020-Jan-27 01:29 273 2 gusting 7 3.9
2020-Jan-27 01:19 257 0 gusting 6 3.9
2020-Jan-27 01:09 261 2 gusting 6 3.9
2020-Jan-27 00:59 270 0 gusting 4 3.9
2020-Jan-27 00:49 248 0 gusting 5 4.4
2020-Jan-27 00:39 246 1 gusting 4 4.4
2020-Jan-27 00:29 259 3 gusting 4 4.4
2020-Jan-27 00:19 275 1 gusting 6 4.4
2020-Jan-27 00:09 283 5.0
2020-Jan-26 23:59 252 5.0
2020-Jan-26 23:49 248 0 gusting 4 5.0
2020-Jan-26 23:39 257 5.0
2020-Jan-26 23:29 250 5.0
2020-Jan-26 23:19 252 0 gusting 3 5.0
2020-Jan-26 23:09 209 1 gusting 6 5.6